Погода в Сухаре

Оман     24°22′03″N   56°43′06″E
темп.,
°C
ветер,
м/с
пор.,
м/с
влажн.,
%
обл.,
%
осадки,
мм/ч
давл.,
гПа
погр.,
м
25 февраля, чт
чт2501:00+23ююз124643 0.0 101224
04:00+22з125024 0.0 101124
07:00+23ссз334725 0.0 101325
10:00+28ссв434013 0.0 1014413
13:00+30в443656 0.0 1012437
16:00+27всв444554 0.0 1010266
19:00+24вюв335448 0.0 101124
22:00+22с126724 0.0 101223
26 февраля, пт
пт2601:00+20зсз11700 0.0 101223
04:00+20сз22660 0.0 101130
07:00+21сз34565 0.0 101352
10:00+28ссз23353 0.0 1014753
13:00+30ссв68380 0.0 10121243
16:00+30в05380 0.0 10111030
19:00+24сз45450 0.0 101276
22:00+21зсз46480 0.0 1014127
27 февраля, сб
сб2701:00+19зсз56450 0.0 1013115
04:00+17сз46600 0.0 1012134
07:00+15зсз45670 0.0 1014129
10:00+22с32370 0.0 1016629
13:00+24св65380 0.0 1013884
16:00+23всв43490 0.0 1011468
19:00+20в33680 0.0 1013143
22:00+18ююз11790 0.0 1014112
28 февраля, вс
вс2801:00+17зюз22790 0.0 101476
04:00+16зсз23720 0.0 101378
07:00+16сз22620 0.0 101494
10:00+22в22460 0.0 1016711
13:00+24всв64530 0.0 1013580
16:00+23всв54510 0.0 1012587
19:00+20вюв34640 0.0 1013148
22:00+18ю22740 0.0 1015126
1 марта, пн
пн101:00+17юз11810 0.0 101480
04:00+17зсз12800 0.0 101356
07:00+17ю12780 0.0 101573
10:00+24юв34490 0.0 1016680
13:00+25всв65540 0.0 1014491
16:00+25в54520 0.0 1013478
19:00+22вюв34650 0.0 1014120
22:00+20ююв33740 0.0 1015109